Simultaneous Nadir Overpasses (SNOs) Predictions

Prediction of SNOs between METOP-A and TERRA Satellite Orbit:

Table of predicted SNOs for the next 14.0 days since TLE Epoch: 9/17/2016
Index Date (METOP-A) Time (METOP-A) Lat,Lon (METOP-A) SZA (METOP-A ) Date (TERRA) Time (TERRA) Lat,Lon (TERRA) SZA (TERRA ) Distance(km) Time Diff (sec)
1 09/17/2016 04:37:09 81.29, 157.85 82.13 09/17/2016 04:37:23 81.29, 157.71 82.13 2.31 14
2 09/17/2016 05:27:49 -81.29, -34.55 97.82 09/17/2016 05:26:49 -81.30, -34.46 97.84 1.76 60
3 09/20/2016 00:11:33 81.29,-136.04 83.21 09/20/2016 00:11:42 81.28,-136.07 83.21 0.95 9
4 09/20/2016 01:02:12 -81.30, 31.95 96.70 09/20/2016 01:01:08 -81.29, 31.80 96.75 2.57 64
5 09/22/2016 19:45:56 81.29, -69.57 84.34 09/22/2016 19:46:04 81.29, -69.44 84.36 2.27 8
6 09/
